Concord, CA

9:15 PM PDT on July 22, 2017 (GMT -0700)
Buchanan

Weather History for KCCR - December, 2013

Change the Weather History Date:

Thursday, December 26, 2013

  Actual Average Record
Temperature  
Mean Temperature 48 °F 47 °F  
Max Temperature 64 °F 55 °F 65 °F (2006)
Min Temperature 31 °F 39 °F 29 °F (2011)
Degree Days  
Heating Degree Days 17    
Month to date heating degree days 512  
Since 1 July heating degree days 940  
Cooling Degree Days 0    
Month to date cooling degree days 0  
Year to date cooling degree days 826  
Moisture  
Dew Point 34 °F    
Average Humidity 64    
Maximum Humidity 96    
Minimum Humidity 31    
Precipitation  
Precipitation 0.00 in - 0.29 in (2006)
Month to date precipitation 0.46  
Year to date precipitation 4.54  
Since 1 July precipitation 2.48  
Sea Level Pressure  
Sea Level Pressure 30.20 in    
Wind  
Wind Speed 2 mph (NE)    
Max Wind Speed 12 mph    
Max Gust Speed 17 mph    
Visibility 8 miles    
Events      
T = Trace of Precipitation, MM = Missing Value Source: NWS Daily Summary

Daily Weather History Graph

Daily Weather History Graph

Search for Another Location

Airport or City:

Trip Planner

Search our weather history database for the weather conditions in past years. The results will help you decide how hot, cold, wet, or windy it might be!

Date:

Astronomy

Dec. 26, 2013 Rise Set
Actual Time 7:22 AM PST 4:55 PM PST
Civil Twilight 6:53 AM PST 5:24 PM PST
Nautical Twilight 6:20 AM PST 5:57 PM PST
Astronomical Twilight 5:48 AM PST 6:29 PM PST
Moon 1:01 AM PST (12/26) 12:30 PM PST (12/26)
Length of Visible Light 10h 31m
Length of Day
9h 32m
Last Quarter, 37% of the Moon is Illuminated
Dec 26
Last Quarter
Jan 1
New
Jan 7
First Quarter
Jan 15
Full
Jan 23
Last Quarter

Hourly Weather History & Observations

Time (PST) Temp. Windchill Dew Point Humidity Pressure Visibility Wind Dir Wind Speed Gust Speed Precip Events Conditions
12:53 AM 37.0 °F - 33.1 °F 86% 30.22 in 7.0 mi Calm Calm - N/A   Clear
1:53 AM 36.0 °F - 33.1 °F 89% 30.22 in 7.0 mi Calm Calm - N/A   Clear
2:53 AM 36.0 °F 33.3 °F 33.1 °F 89% 30.23 in 7.0 mi ESE 3.5 mph - N/A   Clear
3:53 AM 34.0 °F - 32.0 °F 92% 30.22 in 7.0 mi Calm Calm - N/A   Clear
4:53 AM 33.1 °F - 30.9 °F 92% 30.22 in 7.0 mi Calm Calm - N/A   Clear
5:53 AM 33.1 °F - 30.9 °F 92% 30.22 in 6.0 mi Calm Calm - N/A   Clear
6:53 AM 33.1 °F - 30.9 °F 92% 30.23 in 7.0 mi Calm Calm - N/A   Clear
7:53 AM 32.0 °F - 30.0 °F 92% 30.23 in 7.0 mi Calm Calm - N/A   Clear
8:53 AM 39.0 °F - 34.0 °F 82% 30.25 in 6.0 mi Calm Calm - N/A   Haze
9:53 AM 46.9 °F - 37.9 °F 71% 30.25 in 6.0 mi Calm Calm - N/A   Haze
10:53 AM 52.0 °F - 39.0 °F 61% 30.24 in 9.0 mi NW 4.6 mph - N/A   Clear
11:53 AM 55.9 °F - 39.9 °F 55% 30.21 in 10.0 mi NW 8.1 mph - N/A   Clear
12:53 PM 62.1 °F - 33.1 °F 34% 30.19 in 10.0 mi ENE 9.2 mph - N/A   Clear
1:53 PM 63.0 °F - 33.1 °F 33% 30.16 in 10.0 mi ENE 9.2 mph - N/A   Clear
2:53 PM 64.0 °F - 34.0 °F 33% 30.16 in 10.0 mi NE 6.9 mph - N/A   Clear
3:53 PM 62.1 °F - 34.0 °F 35% 30.14 in 10.0 mi ENE 5.8 mph - N/A   Clear
4:53 PM 57.9 °F - 35.1 °F 42% 30.15 in 10.0 mi NNE 4.6 mph - N/A   Clear
5:53 PM 52.0 °F - 34.0 °F 50% 30.16 in 10.0 mi Calm Calm - N/A   Clear
6:53 PM 48.9 °F - 34.0 °F 56% 30.17 in 10.0 mi Calm Calm - N/A   Clear
7:53 PM 42.1 °F - 32.0 °F 67% 30.18 in 10.0 mi Calm Calm - N/A   Clear
8:53 PM 43.0 °F - 34.0 °F 71% 30.19 in 10.0 mi Calm Calm - N/A   Clear
9:53 PM 39.9 °F - 33.1 °F 77% 30.19 in 10.0 mi Calm Calm - N/A   Clear
10:53 PM 39.0 °F - 33.1 °F 79% 30.19 in 8.0 mi Calm Calm - N/A   Clear
11:53 PM 37.9 °F 35.5 °F 32.0 °F 79% 30.19 in 10.0 mi SE 3.5 mph - N/A   Clear